Seattle, WA
on Thursday, December 6, 2012

Thursday
Previous Day Next Day
Daily Summary
 ActualAverageRecord
Temperature
Mean Temperature °F 41°F  
Max Temperature 45°F 46°F 57°F (1965)
Min Temperature 43°F 36°F 19°F (1956)
Degree Days
Heating Degree Days 21 24  
Month to date heating degree days 108 140  
Since 1 July heating degree days 1135 1323  
Cooling Degree Days 0 0  
Month to date cooling degree days 0 0  
Year to date cooling degree days 177 189  
Moisture
Dew Point 38°F   
Average Humidity 83    
Maximum Humidity 89    
Minimum Humidity 76    
Precipitation
Precipitation 0.06 in 0.18 in 1.39 in (1970)
Month to date precipitation 2.12 1.16  
Year to date precipitation 43.53 33.30  
Snow
Snow 0.00 in in 0.30 in (1980)
Month to date snowfall 0.0  
Since 1 July snowfall 0.0  
Snow Depth 0.00 in   
Wind
Wind Speed 11 mph   
Max Wind Speed 21 mph   
Max Gust Speed 26 mph   
Visibility 10 miles   
Events Rain   

Key: T is trace of precipitation, MM is missing value
Source: NWS Daily Summary
Time(PST)TemperatureDew PointHumidity Pressure Visibility Wind DirectionWind SpeedGust SpeedPrecipitationEvents Conditions
12:53 AM 43.0°F 37.0°F 80% 30.20 in 10.0 miles South 6.9 mph - 0.00 in Rain Light Rain
1:53 AM 43.0°F 36.0°F 76% 30.20 in 10.0 miles SSW 9.2 mph - 0.00 in   Overcast
2:53 AM 43.0°F 37.0°F 80% 30.19 in 10.0 miles South 13.8 mph - 0.00 in   Overcast
3:53 AM 43.0°F 37.0°F 80% 30.18 in 10.0 miles South 11.5 mph - N/A   Overcast
4:20 AM 44.6°F 37.4°F 76% 30.15 in 10.0 miles SSW 12.7 mph - N/A   Overcast
4:53 AM 43.0°F 37.9°F 82% 30.17 in 10.0 miles SSW 11.5 mph - 0.00 in   Overcast
5:53 AM 43.0°F 37.0°F 80% 30.14 in 10.0 miles South 18.4 mph 25.3 mph N/A   Mostly Cloudy
6:53 AM 43.0°F 36.0°F 76% 30.14 in 10.0 miles South 15.0 mph - N/A   Mostly Cloudy
7:53 AM 43.0°F 37.0°F 80% 30.13 in 10.0 miles South 10.4 mph - 0.00 in Rain Light Rain
8:06 AM 42.8°F 37.4°F 81% 30.10 in 10.0 miles South 11.5 mph - 0.00 in   Overcast
8:53 AM 43.0°F 37.0°F 80% 30.14 in 7.0 miles SSW 12.7 mph - 0.00 in Rain Light Rain
9:53 AM 43.0°F 37.0°F 80% 30.13 in 10.0 miles South 12.7 mph 25.3 mph 0.01 in   Overcast
10:53 AM 43.0°F 39.0°F 86% 30.14 in 10.0 miles SSW 11.5 mph - 0.01 in Rain Light Rain
11:17 AM 44.6°F 39.2°F 81% 30.09 in 8.0 miles South 13.8 mph - 0.00 in Rain Light Rain
11:53 AM 43.0°F 39.9°F 89% 30.12 in 7.0 miles SW 13.8 mph - 0.02 in Rain Light Rain
11:58 AM 42.8°F 39.2°F 87% 30.09 in 6.0 miles SSW 12.7 mph - 0.01 in Rain Light Rain
12:44 PM 44.6°F 39.2°F 81% 30.07 in 10.0 miles SSW 12.7 mph 25.3 mph 0.02 in   Mostly Cloudy
12:53 PM 43.0°F 39.0°F 86% 30.10 in 10.0 miles South 13.8 mph 21.9 mph 0.02 in   Mostly Cloudy
1:36 PM 44.6°F 39.2°F 81% 30.06 in 10.0 miles South 9.2 mph - N/A   Overcast
1:53 PM 44.1°F 39.9°F 85% 30.08 in 10.0 miles South 12.7 mph 20.7 mph N/A   Mostly Cloudy
2:51 PM 44.6°F 39.2°F 81% 30.05 in 10.0 miles SSW 13.8 mph 19.6 mph 0.00 in Rain Light Rain
2:53 PM 44.1°F 39.9°F 85% 30.07 in 10.0 miles SSW 15.0 mph 18.4 mph 0.00 in Rain Light Rain
3:53 PM 45.0°F 39.9°F 82% 30.08 in 10.0 miles SSW 11.5 mph 21.9 mph 0.00 in   Mostly Cloudy
4:53 PM 45.0°F 39.0°F 80% 30.09 in 10.0 miles SW 9.2 mph - N/A   Overcast
5:30 PM 44.6°F 39.2°F 81% 30.06 in 10.0 miles WSW 6.9 mph - N/A   Mostly Cloudy
5:53 PM 44.1°F 37.9°F 79% 30.09 in 10.0 miles West 10.4 mph - N/A   Overcast
6:53 PM 44.1°F 39.0°F 82% 30.11 in 10.0 miles SW 5.8 mph - N/A   Overcast
7:38 PM 42.8°F 39.2°F 87% 30.09 in 10.0 miles SW 6.9 mph - N/A   Overcast
7:53 PM 44.1°F 39.0°F 82% 30.12 in 10.0 miles SW 8.1 mph - N/A   Mostly Cloudy
8:30 PM 42.8°F 37.4°F 81% 30.11 in 10.0 miles SW 5.8 mph - N/A   Mostly Cloudy
8:35 PM 42.8°F 37.4°F 81% 30.11 in 10.0 miles WSW 5.8 mph - N/A   Mostly Cloudy
8:53 PM 43.0°F 37.9°F 82% 30.14 in 10.0 miles SW 6.9 mph - N/A   Mostly Cloudy
9:34 PM 42.8°F 39.2°F 87% 30.11 in 10.0 miles SSW 6.9 mph - N/A   Overcast
9:53 PM 43.0°F 39.0°F 86% 30.13 in 10.0 miles South 8.1 mph - N/A   Overcast
10:31 PM 42.8°F 39.2°F 87% 30.11 in 10.0 miles SSW 10.4 mph - N/A   Overcast
10:53 PM 43.0°F 39.0°F 86% 30.14 in 10.0 miles South 11.5 mph - N/A   Overcast
11:22 PM 42.8°F 39.2°F 87% 30.10 in 10.0 miles SSW 10.4 mph - N/A   Overcast
11:53 PM 43.0°F 39.0°F 86% 30.12 in 10.0 miles SSW 13.8 mph - N/A   Overcast
Moon Phase
Dec. 06 Dec. 13 Dec. 20 Dec. 28 Jan. 04
Sunrise:07:42 AM (PST) Moon Rise:No Moon Rise/
Sunset:04:18 PM (PST) Moon Set:12:13 PM (PST)12/6

Copyright © 2014 The Weather Underground, Inc.